Location: Canazei
(46.4667°N, 11.7667°E)
Time: 04:17:58
(UTC+00:00)

USA 234 - Pass Details

Date: 21 April 2021
Orbit: 1102 x 1105 km, 123.0° (Epoch: 18 April)

Event Time Altitude Azimuth Distance (km) Brightness Sun altitude
Rises 02:35:13 0° 52° (NE) 3,928 8.0 -16.0°
Reaches altitude 10° 02:37:42 10° 51° (NE) 2,968 6.9 -15.7°
Maximum altitude 02:44:13 71° 329° (NNW) 1,163 3.4 -14.8°
Enters shadow 02:49:15 18° 249° (WSW) 2,413 4.4 -14.1°
